Accueil
METAR-TAF:

METAR-TAF

Aéroports :

Stuttgart Municipal Airport

Stuttgart, Arkansas, États-Unis

latitude: 34-36N, longitude: 091-34W, altitude: 68 m

Observation

Le bulletin a été fait il y a 43 minutes, à 14:56 UTC
Vent 8 kt de nord
Température 3°C
Humidité 48%
Pression 1033 hPa
Visibilité: 16.1 km
Ciel clair

METAR: KSGT 191456Z AUTO 35008KT 10SM CLR 03/M07 A3051 RMK AO2 SLP334 T00281072 51014

Heure: 09:39 (15:39 UTC)


TAF: absent

Observations et prévisions météorologiques de plus de 4000 aéroports (messages METAR et TAF).

Les stations disponibles sont représentées par des disques jaunes et rouges sur la carte.

Passer la souris dessus pour voir le nom de la station.

Cliquer dessus pour voir les observations et prévisions météorologiques.

Pour changer de carte: cliquez sur les boutons verts avec une croix noire pour zoomer, sur le bouton vert avec un tiret pour effectuer un zoom arrière, ou sur les flèches vertes pour les cartes adjacentes.


METAR-TAF: